Retour au catalogue

OAO 2

ActifScienceLEO
NORAD 3597·PAYLOAD·🇺🇸 United States

Lancé Dec 7, 1968 depuis Cape Canaveral Space Force Station

Loading…

Prochains Passages (prochaines 24 heures)

TLE

FraisSource: Space-Track

Époque: Sep 14, 2026, 12:39 UTC

1 03597U 68110A   26257.52776748  .00000140  00000-0  42688-4 0  9995
2 03597  34.9936 290.8240 0006043 272.4203  87.5796 14.47379838 46475

Suivez OAO 2 en temps réel avec AllMySat

Download on the App Store